Location: Complexul Astronomic Baia Mare
(47.6577°N, 23.5639°E)
Time: 00:03:48
(UTC+02:00)

ISS - Pass Details

Date: 06 March 2017
Orbit: 399 x 409 km, 51.6° (Epoch: 25 March)

Event Time Altitude Azimuth Distance (km) Brightness Sun altitude
Exits shadow 04:15:16 11° 119° (ESE) 1,437 -0.6 -27.5°
Drops below altitude 10° 04:15:34 10° 114° (ESE) 1,473 -0.5 -27.4°
Sets 04:18:51 0° 78° (ENE) 2,342 1.3 -26.9°
